Regional Weather Roundup
Issued by NWS

Home | Current Version | Previous Version | Text Only | Print | Product List | Glossary On
Versions: 1 2 3 4 5 6 7 8 9 10 11 12 13 14 15 16 17 18 19 20 21 22 23 24 25 26 27 28 29 30 31 32 33 34 35 36 37 38 39 40 41 42 43 44 45 46 47 48 49 50
000
ASUS43 KOAX 250210
RWRNE

WEATHER ROUNDUP FOR NEBRASKA
NATIONAL WEATHER SERVICE OMAHA NE
900 PM CDT FRI MAR 24 2017

NOTES: SATELLITE DATA IS BEING USED TO AUGMENT CLOUD COVER ABOVE
       12000 FEET.
       "FAIR" INDICATES FEW OR NO CLOUDS BELOW 12,000 FEET WITH NO
       SIGNIFICANT WEATHER AND/OR OBSTRUCTIONS TO VISIBILITY.

  * THESE STATIONS DO NOT REPORT WEATHER SUCH AS RAIN...SNOW OR FOG.

NEZ001>004-019>022-054>056-250300-
NEBRASKA PANHANDLE

CITY           SKY/WX    TMP DP  RH WIND       PRES   REMARKS
SCOTTSBLUFF    CLEAR     43  29  57 E5        30.10R
ALLIANCE       CLEAR     40  27  59 SE8       30.10S WCI  34
CHADRON        CLEAR     46  31  55 SE10      30.08R
KIMBALL        PTCLDY    40  31  69 E3        30.13S
SIDNEY         CLEAR     39  28  64 E5        30.12S
$$

NEZ057>060-069>072-079>082-250300-
SOUTHWEST NEBRASKA

CITY           SKY/WX    TMP DP  RH WIND       PRES   REMARKS
NORTH PLATTE   CLOUDY    45  38  76 N7        30.09R
IMPERIAL       CLOUDY    42  36  79 N7        30.10R
LEXINGTON      LGT RAIN  42  39  90 N12       30.05S
MCCOOK         LGT RAIN  42  40  92 N17       30.07R
OGALLALA       CLEAR     40  32  74 N6        30.11R
$$

NEZ005>010-023>029-035>040-094-250300-
NORTH CENTRAL NEBRASKA

CITY           SKY/WX    TMP DP  RH WIND       PRES   REMARKS
VALENTINE      CLEAR     41  29  62 E8        30.12R
AINSWORTH      CLEAR     37  32  84 N8        30.11R WCI  30
BROKEN BOW     LGT RAIN  43  39  86 N10       30.07R
O`NEILL        CLOUDY    42  38  86 N7        30.10R
ORD            RAIN      41  38  89 N10       30.06R FOG
THEDFORD       CLEAR     43  32  66 N5        30.11S
$$

NEZ041-046>049-061>064-073>077-083>087-250300-
SOUTH CENTRAL NEBRASKA

CITY           SKY/WX    TMP DP  RH WIND       PRES   REMARKS
GRAND ISLAND   CLOUDY    40  40 100 N15G23    30.04R WCI  32
AURORA         CLOUDY    40  38  94 N16G25    30.03R WCI  32
HASTINGS       CLOUDY    41  37  86 N17       30.04R
HEBRON         CLOUDY    42  38  86 N15G28    29.98R
HOLDREGE       CLOUDY    40  37  90 N21G28    30.02R WCI  30
KEARNEY *      CLOUDY    39  36  87 N17G23    30.04R WCI  30
YORK           CLOUDY    39  39 100 N17G25    30.02R WCI  30
$$

NEZ011>018-030>034-042>045-250300-
NORTHEAST NEBRASKA

CITY           SKY/WX    TMP DP  RH WIND       PRES   REMARKS
NORFOLK        LGT RAIN  40  37  89 NE20G26   30.05R FOG     WCI  30
ALBION         RAIN      42  38  88 N9G18     30.05S
BLAIR          RAIN      41  40  96 N18G24    29.97S
FREMONT        LGT RAIN  42  41  98 N10G20    30.01S
TEKAMAH        LGT RAIN  42  40  92 N14       30.03R
WAYNE          CLOUDY    41  40  99 N13G18    30.07R FOG
$$

NEZ050>053-065>068-078-088>093-250300-
SOUTHEAST NEBRASKA

CITY           SKY/WX    TMP DP  RH WIND       PRES   REMARKS
LINCOLN        CLOUDY    43  40  89 N16G25    29.99R
OMAHA EPPLEY   LGT RAIN  43  38  82 N16       29.99R
BEATRICE       CLOUDY    44  41  89 NE16G23   29.95R
FALLS CITY     RAIN      50  48  93 N13G24    29.86S
NEBRASKA CITY  LGT RAIN  43  42  99 NE18G25   29.92F
PLATTSMOUTH    RAIN      42  39  89 N14G20    29.95F
$$

NEZ044-045-051>053-067-250300-
OMAHA AREA

CITY           SKY/WX    TMP DP  RH WIND       PRES   REMARKS
OMAHA EPPLEY   LGT RAIN  43  38  82 N16       29.99R
BLAIR          RAIN      41  40  96 N18G24    29.97S
FREMONT        LGT RAIN  42  41  98 N10G20    30.01S
MILLARD        LGT RAIN  44  42  91 N9        29.98S
OFFUTT AFB     RAIN      43  39  87 N15G26    29.96S
PLATTSMOUTH    RAIN      42  39  89 N14G20    29.95F
WAHOO          RAIN      42  40  92 N17       30.00R
$$



USA.gov is the U.S. government's official web portal to all federal, state and local government web resources and services.